Flag for Germany Weather past 2 weeks in Hennef (Sieg), North Rhine-Westphalia, Germany

Now
59 °F

Rain. Low clouds.


Feels Like: 59 °F
Forecast: 45 / 58 °F
Wind: 5 mph from North

Location: Bonn-Hangelar

Current Time: Sep 21, 2014 at 10:45:51 AM

Latest Report: Sep 21, 2014 at 10:00 AM


Visibility: 2 mi

Pressure: 30.01 "Hg

Humidity: 98%

Dew point: 58 °F

Location of Hennef (Sieg)Location

Historic Weather in Hennef (Sieg) — Graph

°F

Hennef (Sieg) temperature yesterday

Maximum temperature yesterday: 74 °F (at 3:00 PM)
Minimum temperature yesterday: 62 °F (at 8:00 AM)
Average temperature yesterday: 65 °F

Past Weeks' High & Low Weather Summary

 TemperatureHumidityPressure
High75 °F (Sep 17, 3:00 PM)99% (Sep 13, 10:00 AM)30.27 "Hg (Sep 13, 10:00 AM)
Low47 °F (Sep 12, 7:00 AM)52% (Sep 10, 3:00 PM)29.80 "Hg (Sep 18, 6:00 PM)
Average61 °F82%30.03 "Hg
* Reported Sep 6 9:00 AM — Sep 21 9:00 AM, Hennef (Sieg), Weather by CustomWeather, © 2014

Note: Actual official high and low records may vary slightly from our data, if they occured in-between our weather recording intervals... More about our weather records

Advertising

Hennef (Sieg) weather history for previous 24 hours

 ConditionsComfort  
Time TempWeatherWind HumidityBarometerVisibility
9:00 AM
Sep 21
59 °FRain. Low clouds.5 mph98%29.99 "Hg1 mi
8:00 AM59 °FLight rain. Low clouds.1 mph97%29.98 "Hg1 mi
7:00 AM59 °FLow clouds.2 mph97%29.98 "Hg2 mi
6:00 AM59 °FLight rain. Low clouds.3 mph98%29.98 "Hg4 mi
5:00 AM60 °FLight freezing rain. Low clouds.2 mph98%29.98 "Hg1 mi
4:00 AM60 °FRain. Low clouds.3 mph98%29.98 "Hg1 mi
3:00 AM60 °FFog.2 mph97%29.98 "Hg2 mi
2:00 AM59 °FPassing clouds.6 mph95%29.99 "Hg3 mi
1:00 AM59 °FLight rain. Overcast.3 mph95%29.99 "Hg7 mi
12:00 AM60 °FLight rain. Overcast.6 mph91%30.00 "Hg11 mi
11:00 PM
Sep 20
64 °FFog.3 mph92%29.99 "Hg2 mi
10:00 PM64 °FFog.2 mph91%29.98 "Hg2 mi
9:00 PM65 °FOvercast.2 mph84%29.97 "Hg11 mi
8:00 PM64 °FThunderstorms. Overcast.2 mph89%29.95 "Hg12 mi
3:00 PM74 °FScattered clouds.6 mph72%29.93 "Hg25 mi
2:00 PM72 °FPassing clouds.5 mph68%29.94 "Hg19 mi
1:00 PM71 °FPartly sunny.3 mph72%29.95 "Hg19 mi
12:00 PM69 °FOvercast.3 mph82%29.96 "Hg16 mi
11:00 AM67 °FPartly sunny.5 mph85%29.95 "Hg16 mi
10:00 AM66 °FScattered clouds.5 mph87%29.94 "Hg19 mi
Weather by CustomWeather, © 2014

See weather overviewHow to use our weather pages